リニア彗星

C/2001 U6 ( LINEAR )

English version
Home page
Updated on June 28, 2003

---------------------------------------------------------------------

・ プロフィール

発見日 2001年10月29日
発見光度 19.5等
発見者 Lincoln Laboratory Near-Earth Asteroid Research project

・ 軌道要素

Epoch 2002 July 25.0 TT = JDT 2452480.5
T 2002 Aug. 8.70523 TT                                  MPC
q   4.4063768            (2000.0)            P               Q
z  +0.0008296      Peri.   85.72271     +0.23579398     +0.44509556
 +/-0.0000043      Node   115.23105     -0.20122625     -0.84731889
e   0.9963443      Incl.  107.25555     +0.95074139     -0.28972512

・ 星図

・ 光度変化

        m1 = 8.0 + 5 logΔ + 10.0 log r

---------------------------------------------------------------------

軌道要素はM.P.E.C. 2002-S07に掲載されたものです。
星図は StellaNavigator Ver.2.0 for Windows (アストロアーツ 編著 / アスキー出版局刊) で作成したものです。
光度グラフはComet for Windowsで作成したものです。

---------------------------------------------------------------------

Copyright(C) Seiichi Yoshida (comet@aerith.net). All rights reserved.